Regional Weather Roundup
Issued by NWS

Home | Current Version | Previous Version | Text Only | Print | Product List | Glossary On
Versions: 1 2 3 4 5 6 7 8 9 10 11 12 13 14 15 16 17 18 19 20 21 22 23 24 25 26 27 28 29 30 31 32 33 34 35 36 37 38 39 40 41 42 43 44 45 46 47 48 49 50
000
ASUS43 KBIS 300802
RWRND

NORTH DAKOTA REGIONAL WEATHER ROUNDUP
NATIONAL WEATHER SERVICE BISMARCK ND
300 AM CDT SAT MAY 30 2015

NOTE: "FAIR" INDICATES FEW OR NO CLOUDS BELOW 12,000 FEET WITH NO
SIGNIFICANT WEATHER AND/OR OBSTRUCTIONS TO VISIBILITY.


NDZ001>003-009>011-017-300900-
NORTHWEST NORTH DAKOTA

CITY           SKY/WX    TMP DP  RH WIND       PRES   REMARKS
WILLISTON      PTCLDY    43  34  70 E7        30.30S
MINOT          CLEAR     36  30  79 E7        30.36R
MINOT AFB      CLEAR     37  37  98 SE5       30.36R
$$

NDZ018>021-031>035-040>046-300900-
SOUTHWEST NORTH DAKOTA

CITY           SKY/WX    TMP DP  RH WIND       PRES   REMARKS
BISMARCK       CLEAR     39  34  82 E8        30.34R
DICKINSON      CLEAR     34  29  82 S6        30.28R
GARRISON         N/A     41  33  73 E12       30.33R
HETTINGER ARPT CLEAR     34  31  88 CALM      30.30S
$$

NDZ004>008-012>016-024-026-027-054-300900-
NORTHEAST NORTH DAKOTA

CITY           SKY/WX    TMP DP  RH WIND       PRES   REMARKS
GRAND FORKS    CLEAR     36  26  67 N13       30.35R
GRND FRKS AFB  CLEAR     33  25  72 N12       30.35S
DEVILS LAKE    CLEAR     36  23  60 NE8       30.36R
$$

NDZ022-023-025-028>030-036>039-047>053-300900-
SOUTHEAST NORTH DAKOTA

CITY           SKY/WX    TMP DP  RH WIND       PRES   REMARKS
FARGO          CLEAR     38  29  70 N17       30.31R
JAMESTOWN      CLEAR     38  29  70 NE15      30.33R
$$



USA.gov is the U.S. government's official web portal to all federal, state and local government web resources and services.